EA1IOS-11 Weather Reports


time (UTC)temp
C
wind
direction
speed
KPH
gust
KPH
rain 1hr
cm
rain 24hr
cm
rain mn
cm
humidity
%
barometer
mb
20260905214231 22 86 1.6 6.4 0.00 0.00 0.00 90 1021.8
20260905213106 22 117 4.8 9.7 0.00 0.00 0.00 89 1021.6
20260905212102 22 293 0.0 3.2 0.00 0.00 0.00 89 1021.5
20260905211057 22 117 1.6 3.2 0.00 0.00 0.00 89 1022.0
20260905210054 22 150 1.6 6.4 0.00 0.00 0.00 88 1022.0
20260905205049 22 316 4.8 6.4 0.00 0.00 0.00 88 1021.9
20260905204105 22 261 1.6 3.2 0.00 0.00 0.00 88 1022.7
20260905203041 22 214 3.2 12.9 0.00 0.00 0.00 89 1022.5
20260905202033 22 274 3.2 6.4 0.00 0.00 0.00 89 1022.6
20260905201029 22 94 1.6 6.4 0.00 0.00 0.00 88 1022.6
20260905200024 22 313 8.0 17.7 0.00 0.00 0.00 87 1022.3
20260905195100 22 319 6.4 9.7 0.00 0.00 0.00 87 1021.9
20260905194016 22 318 8.0 14.5 0.00 0.00 0.00 86 1021.4
20260905193132 22 100 0.0 3.2 0.00 0.00 0.00 86 1019.9
20260905192108 22 124 3.2 6.4 0.00 0.00 0.00 86 1019.7
20260905191104 22 117 3.2 6.4 0.00 0.00 0.00 86 1019.4
20260905190100 22 112 4.8 11.3 0.00 0.00 0.00 86 1019.3
20260905185115 22 110 3.2 6.4 0.00 0.00 0.00 86 1019.5
20260905184051 22 116 3.2 11.3 0.00 0.00 0.00 85 1019.6
20260905183047 22 105 6.4 12.9 0.00 0.00 0.00 85 1019.6
20260905182043 23 79 4.8 6.4 0.00 0.00 0.00 84 1019.5
20260905181039 23 115 4.8 9.7 0.00 0.00 0.00 84 1019.7
20260905180035 23 97 4.8 9.7 0.00 0.00 0.00 84 1019.5
20260905175111 23 120 1.6 6.4 0.00 0.00 0.00 84 1019.2
20260905174026 23 112 6.4 14.5 0.00 0.00 0.00 84 1019.3
20260905173022 23 129 4.8 17.7 0.00 0.00 0.00 84 1019.0
20260905172117 23 107 6.4 14.5 0.00 0.00 0.00 84 1019.1
20260905171108 23 102 6.4 14.5 0.00 0.00 0.00 84 1019.1
20260905165058 23 118 6.4 17.7 0.00 0.00 0.00 85 1019.2
20260905164114 23 126 9.7 20.9 0.00 0.00 0.00 85 1019.3
20260905163049 23 116 4.8 11.3 0.00 0.00 0.00 86 1019.3
20260905162045 23 105 4.8 14.5 0.00 0.00 0.00 85 1019.1
20260905161041 23 118 4.8 11.3 0.00 0.00 0.00 85 1019.2
20260905160037 23 107 4.8 11.3 0.00 0.00 0.00 84 1019.3
20260905155033 23 82 6.4 14.5 0.00 0.00 0.00 84 1019.3
20260905154029 24 106 6.4 12.9 0.00 0.00 0.00 83 1019.3
20260905153045 25 140 4.8 14.5 0.00 0.00 0.00 81 1019.4
20260905152020 25 89 4.8 11.3 0.00 0.00 0.00 81 1019.3
20260905151016 25 117 6.4 12.9 0.00 0.00 0.00 81 1019.4
20260905150112 24 122 4.8 11.3 0.00 0.00 0.00 81 1019.4
20260905145129 24 45 8.0 17.7 0.00 0.00 0.00 82 1019.4
20260905144104 24 93 4.8 11.3 0.00 0.00 0.00 82 1019.4
20260905143100 24 56 4.8 11.3 0.00 0.00 0.00 81 1019.5
20260905142056 24 103 6.4 12.9 0.00 0.00 0.00 83 1019.6
20260905141105 24 102 9.7 17.7 0.00 0.00 0.00 83 1019.6
20260905140041 24 66 11.3 20.9 0.00 0.00 0.00 81 1019.7
20260905135036 25 62 4.8 17.7 0.00 0.00 0.00 79 1019.9
20260905134032 25 105 4.8 14.5 0.00 0.00 0.00 78 1019.8
20260905133028 25 146 6.4 17.7 0.00 0.00 0.00 78 1019.9
20260905132024 25 91 6.4 17.7 0.00 0.00 0.00 78 1020.2
20260905131019 25 86 9.7 20.9 0.00 0.00 0.00 77 1020.2
20260905130135 25 116 6.4 17.7 0.00 0.00 0.00 77 1020.2
20260905125111 25 109 9.7 17.7 0.00 0.00 0.00 77 1020.5
20260905124107 25 105 8.0 20.9 0.00 0.00 0.00 78 1020.5
20260905123103 25 113 4.8 11.3 0.00 0.00 0.00 79 1020.7
20260905122118 24 103 6.4 14.5 0.00 0.00 0.00 82 1020.9
20260905121054 24 120 6.4 14.5 0.00 0.00 0.00 81 1021.1
20260905120050 24 115 8.0 20.9 0.00 0.00 0.00 81 1021.3
20260905115045 25 99 8.0 20.9 0.00 0.00 0.00 79 1021.4
20260905114100 25 120 8.0 32.2 0.00 0.00 0.00 77 1021.5
20260905113036 25 131 9.7 22.5 0.00 0.00 0.00 77 1021.8
20260905112032 25 103 6.4 17.7 0.00 0.00 0.00 78 1021.9
20260905111022 24 110 9.7 22.5 0.00 0.00 0.00 80 1022.2
20260905110018 23 122 9.7 35.4 0.00 0.00 0.00 81 1022.3
20260905105113 23 103 8.0 17.7 0.00 0.00 0.00 82 1022.5
20260905104108 23 87 9.7 22.5 0.00 0.00 0.00 83 1022.7
20260905103104 23 78 8.0 17.7 0.00 0.00 0.00 83 1022.7
20260905102059 23 96 9.7 22.5 0.00 0.00 0.00 84 1023.0
20260905101055 22 113 6.4 12.9 0.00 0.00 0.00 85 1023.1
20260905100131 22 89 8.0 12.9 0.00 0.00 0.00 85 1023.2
20260905095047 22 116 11.3 20.9 0.00 0.00 0.00 85 1023.1
20260905094044 22 66 4.8 9.7 0.00 0.00 0.00 86 1023.1
20260905093038 22 100 4.8 12.9 0.00 0.00 0.00 87 1023.3
20260905092034 22 101 3.2 6.4 0.00 0.00 0.00 87 1023.0
20260905091050 22 102 3.2 6.4 0.00 0.00 0.00 87 1023.3
20260905090046 22 131 8.0 17.7 0.00 0.00 0.00 87 1023.3
20260905085021 22 107 4.8 11.3 0.00 0.00 0.00 87 1023.3
20260905084017 22 87 4.8 12.9 0.00 0.00 0.00 88 1023.3
20260905083114 21 114 6.4 27.4 0.00 0.00 0.00 88 1023.2
20260905082110 21 105 4.8 11.3 0.00 0.00 0.00 88 1023.4
20260905081103 21 114 6.4 17.7 0.00 0.00 0.00 89 1023.7
20260905080057 21 113 8.0 14.5 0.00 0.00 0.00 89 1023.5
20260905075053 21 107 4.8 12.9 0.00 0.00 0.00 89 1023.6
20260905074048 21 96 1.6 6.4 0.00 0.00 0.00 89 1023.5
20260905073044 21 99 4.8 11.3 0.00 0.00 0.00 89 1023.7
20260905072040 21 106 3.2 9.7 0.00 0.00 0.00 89 1023.8
20260905071036 21 99 3.2 6.4 0.00 0.00 0.00 89 1023.8
20260905070052 21 111 1.6 6.4 0.00 0.00 0.00 89 1023.5
20260905065028 21 120 3.2 6.4 0.00 0.00 0.00 90 1023.5
20260905064044 21 91 4.8 12.9 0.00 0.00 0.00 90 1023.1
20260905063040 21 100 1.6 6.4 0.00 0.00 0.00 91 1023.0
20260905062016 21 116 3.2 6.4 0.00 0.00 0.00 91 1022.8
20260905061112 21 107 1.6 6.4 0.00 0.00 0.00 91 1022.9
20260905060128 21 85 3.2 6.4 0.00 0.00 0.00 91 1022.9
20260905055104 21 105 1.6 6.4 0.00 0.00 0.00 91 1023.0
20260905054100 21 90 3.2 6.4 0.00 0.00 0.00 90 1022.8
20260905053056 21 117 3.2 6.4 0.00 0.00 0.00 90 1022.6
20260905052051 21 110 3.2 6.4 0.00 0.00 0.00 90 1022.7
20260905051043 21 96 3.2 6.4 0.00 0.00 0.00 90 1022.9
20260905050038 21 97 1.6 3.2 0.00 0.00 0.00 90 1022.8
20260905045034 21 110 1.6 3.2 0.00 0.00 0.00 90 1022.9
20260905044030 21 105 1.6 3.2 0.00 0.00 0.00 90 1023.0
20260905043026 21 97 1.6 3.2 0.00 0.00 0.00 90 1022.9
20260905042022 21 104 3.2 6.4 0.00 0.00 0.00 90 1023.2
20260905041058 21 68 3.2 6.4 0.00 0.00 0.00 90 1023.0
20260905040134 21 103 3.2 6.4 0.00 0.00 0.00 90 1023.0
20260905035110 21 103 1.6 3.2 0.00 0.00 0.00 90 1023.0
20260905034106 21 98 1.6 6.4 0.00 0.00 0.00 90 1023.1
20260905033102 21 113 3.2 6.4 0.00 0.00 0.00 90 1023.1
20260905032057 21 104 1.6 6.4 0.00 0.00 0.00 90 1023.2
20260905031053 21 102 4.8 6.4 0.00 0.00 0.00 90 1023.2
20260905030109 21 120 3.2 6.4 0.00 0.00 0.00 90 1023.1
20260905025045 21 113 1.6 3.2 0.00 0.00 0.00 90 1023.1
20260905024041 21 116 3.2 6.4 0.00 0.00 0.00 90 1023.2
20260905023037 21 106 3.2 6.4 0.00 0.00 0.00 90 1023.2
20260905022032 21 101 1.6 3.2 0.00 0.00 0.00 90 1023.3
20260905021022 21 94 1.6 3.2 0.00 0.00 0.00 90 1023.3
20260905020038 21 101 1.6 6.4 0.00 0.00 0.00 90 1023.3
20260905015114 21 90 0.0 3.2 0.00 0.00 0.00 90 1023.7
20260905014110 21 68 0.0 3.2 0.00 0.00 0.00 90 1023.8
20260905013106 21 113 1.6 3.2 0.00 0.00 0.00 89 1023.8
20260905012101 21 81 1.6 3.2 0.00 0.00 0.00 89 1023.8
20260905011057 21 109 3.2 3.2 0.00 0.00 0.00 89 1023.9
20260905010053 21 106 3.2 3.2 0.00 0.00 0.00 89 1024.1
20260905005109 21 113 1.6 6.4 0.00 0.00 0.00 90 1024.2
20260905004045 21 135 1.6 3.2 0.00 0.00 0.00 90 1024.2
20260905003041 21 105 1.6 3.2 0.00 0.00 0.00 89 1024.1
20260905002037 21 90 1.6 3.2 0.00 0.00 0.00 89 1024.1
20260905001053 21 110 1.6 3.2 0.00 0.00 0.00 89 1024.0
20260905000029 21 99 1.6 3.2 0.00 0.00 0.00 89 1024.0
20260904235024 21 116 3.2 3.2 0.00 0.00 0.00 89 1024.0
20260904234020 21 113 1.6 3.2 0.00 0.00 0.00 89 1024.0
20260904233016 21 122 1.6 3.2 0.00 0.00 0.00 89 1024.1
20260904232112 21 96 1.6 3.2 0.00 0.00 0.00 89 1024.0
20260904231107 21 93 1.6 3.2 0.00 0.00 0.00 89 1023.9
20260904230053 21 95 1.6 3.2 0.00 0.00 0.00 88 1024.0
20260904225048 21 75 0.0 3.2 0.00 0.00 0.00 88 1024.1
20260904224044 21 84 0.0 3.2 0.00 0.00 0.00 88 1024.1
20260904223040 21 135 0.0 3.2 0.00 0.00 0.00 88 1024.2
20260904222036 21 94 1.6 3.2 0.00 0.00 0.00 88 1024.2
20260904221031 21 89 1.6 6.4 0.00 0.00 0.00 87 1024.3
20260904220047 22 81 1.6 6.4 0.00 0.00 0.00 87 1024.4
20260904215022 22 72 1.6 3.2 0.00 0.00 0.00 87 1024.6